Location: Temagami
(47.0645°N, 79.7909°W)
Time: 13:17:48
(UTC-04:00)

BlueWalker 3 - Visible Passes

Search period start: 08 June 2026 00:00
Search period end: 18 June 2026 00:00
Orbit: 447 x 456 km, 53.2° (Epoch: 8 June)

Date Brightness Start Highest point End Pass type
(mag) Time Alt. Az. Time Alt. Az. Time Alt. Az.
8 Jun 2.0 21:50:50 10° WNW 21:54:19 55° SW 21:57:46 10° SE visible
9 Jun 4.1 22:52:35 10° WSW 22:54:03 12° SW 22:55:31 10° SSW visible
10 Jun 3.9 22:14:50 10° W 22:17:05 16° SW 22:19:20 10° S visible
